Location: Bow
(51.5261°N, 0.0167°W)
Time: 03:58:20
(UTC+00:00)

NOSS 2-2 (D) - Pass Details

Date: 18 September 2020
Orbit: 462 x 1746 km, 63.3° (Epoch: 14 October)

Event Time Altitude Azimuth Distance (km) Brightness Sun altitude
Rises 19:20:28 0° 202° (SSW) 2,481 6.7 -12.1°
Reaches altitude 10° 19:22:34 10° 194° (SSW) 1,613 5.7 -12.4°
Maximum altitude 19:25:49 38° 125° (SE) 755 3.5 -12.9°
Drops below altitude 10° 19:29:29 10° 55° (NE) 1,827 5.6 -13.4°
Sets 19:32:00 0° 48° (NE) 2,868 6.7 -13.8°
